FLTSATCOM 8 (USA 46)

Last updated on Nov. 29, 2020, 6:16 a.m. UTC

1 20253U 89077A   20333.08993385 -.00000071  00000-0  00000-0 0  9998
2 20253  13.0019   4.2568 0001004 227.8338 299.6793  1.00272836240270
UTC
Height (km)
Latitude
Longitude
Inclination
Orbital Period
UTC large
Height (km)
Speed (km/s)
/
Latitude / Longitude
Inclination (degrees)
Orbital Period (minutes)
Azimuth
Elevation
Range (km)
Doppler Factor
iOS Compass Heading
iOS Angle

Next 30 passes for location: Hong Kong

Rise time Rise Azimuth (degrees) Set time Set Azimuth (degrees) Duration Max altitude (degrees)

No matching passes for this satellites